[[{"header":{"parameterUnit":"m.s-1","parameterCategory":1,"la1":30.2991,"la2":30.254,"lo1":-89.0895,"lo2":-89.0444,"dx":0.0017,"dy":0.0017,"nx":28,"ny":28,"refTime":"2022-12-02T09:00:00:Z","depth":0,"parameterNumber":2,"parameterNumberName":"U-component_of_WINDS"},"data":[0,0,0,0,0,0,0,0,0,0,0,0,0,0,0,0,0,0,0,0,0,0,0,0,0,0,0,0,0,0,0,0,0,0,0,0,0,0,0,0,0,0,0,0,0,0,0,0,0,0,0,0,0,0,0,0,0,0,-4.6822,-4.6823,0,-4.6893,-4.6894,-4.6895,-4.6842,-4.6839,-4.6837,-4.6835,-4.6909,-4.6913,-4.6917,0,0,0,0,0,0,0,0,0,0,0,0,0,-4.6643,-4.6647,-4.6822,-4.6823,-4.6824,-4.6893,-4.6894,-4.6895,-4.6842,-4.6839,-4.6836,-4.6834,-4.6907,-4.6912,-4.6917,0,0,0,0,0,0,0,0,0,0,0,0,0,-4.6718,-4.6648,-4.6822,-4.6806,-4.6805,-4.6893,-4.6894,-4.6895,-4.6843,-4.6839,-4.6836,-4.6832,-4.6906,-4.6912,-4.6918,-4.7026,0,0,-4.6937,-4.6939,0,0,0,0,0,0,0,0,-4.6714,-4.6725,-4.6808,-4.6807,-4.6807,-4.6855,-4.6858,-4.6939,-4.6844,-4.6829,-4.6835,-4.6831,-4.6894,-4.6901,-4.6922,-4.7029,-4.7032,-4.6937,-4.6941,-4.6944,-4.6946,0,0,0,0,0,0,0,-4.6709,-4.6722,-4.685,-4.6809,-4.6808,-4.6796,-4.6803,-4.6873,-4.688,-4.683,-4.6826,-4.6835,-4.6893,-4.6916,-4.6923,-4.7033,-4.6937,-4.6943,-4.6947,-4.6949,-4.7234,-4.7237,0,0,0,0,0,0,-4.6705,-4.6718,-4.6848,-4.6853,-4.6751,-4.6802,-4.681,-4.6843,-4.6879,-4.6881,-4.6838,-4.6832,-4.6907,-4.6916,-4.6925,-4.7053,-4.6944,-4.695,-4.6953,-4.723,-4.7235,-4.7239,0,0,0,0,0,0,-4.6702,-4.6717,-4.6845,-4.6784,-4.68,-4.6809,-4.6847,-4.6846,-4.6869,-4.6885,-4.6886,-4.686,-4.6905,-4.6917,-4.7001,-4.7055,-4.6952,-4.6958,-4.7225,-4.7231,-4.7237,-4.731,0,0,0,0,0,0,-4.6697,-4.6716,-4.6756,-4.6785,-4.6803,-4.6919,-4.685,-4.685,-4.688,-4.6873,-4.6906,-4.6908,-4.6903,-4.6992,-4.7007,-4.7062,-4.6963,-4.7221,-4.7228,-4.7235,-4.7303,-4.7318,-4.7331,0,0,0,0,0,-4.669,-4.6775,-4.6759,-4.6775,-4.6853,-4.6922,-4.6932,-4.6924,-4.6884,-4.6925,-4.6936,-4.6907,-4.7048,-4.7001,-4.7018,-4.7075,-4.7217,-4.7226,-4.7234,-4.7297,-4.7315,-4.733,0,0,0,0,0,0,-4.6751,-4.6778,-4.6761,-4.6857,-4.6888,-4.6913,-4.6964,-4.6943,-4.6986,-4.6978,-4.6967,-4.6975,-4.7063,-4.7078,-4.7026,-4.7182,-4.7126,-4.7139,-4.7168,-4.7185,-4.7199,-4.7192,-4.6968,0,0,0,0,0,-4.6776,-4.6829,-4.685,-4.6933,-4.6949,-4.6955,-4.6984,-4.6975,-4.7007,-4.702,-4.7037,-4.7069,-4.712,-4.7154,-4.7203,-4.7307,-4.7313,-4.7354,-4.7368,-4.7379,-4.7389,-4.7445,-4.7463,-4.7267,-4.7267,-4.7267,0,0,-4.6827,-4.6848,-4.6883,-4.6946,-4.6968,-4.7024,-4.6966,-4.7027,-4.7068,-4.7029,-4.7109,-4.7124,-4.7159,-4.7254,-4.7296,-4.7269,-4.7445,-4.739,-4.7399,-4.7403,-4.7456,-4.7474,-4.7491,-4.7273,-4.7272,-4.7271,0,0,-4.6948,-4.697,-4.7041,-4.7066,-4.7102,-4.7105,-4.7123,-4.7152,-4.7159,-4.724,-4.7212,-4.7262,-4.7351,-4.7377,-4.7402,-4.7537,-4.7512,-4.7554,-4.7624,-4.7679,-4.7694,-4.7708,-4.7755,-4.7772,-4.7564,-4.7565,-4.7565,0,-4.7007,-4.7089,-4.708,-4.7144,-4.7172,-4.7141,-4.7213,-4.7238,-4.7288,-4.7309,-4.7278,-4.7389,-4.7411,-4.7511,-4.7544,-4.7566,-4.7586,-4.7548,-4.7693,-4.7706,-4.7719,-4.7763,-4.7781,-4.7569,-4.7569,-4.7568,-4.7568,0,-4.7159,-4.7217,-4.727,-4.7319,-4.7354,-4.7422,-4.7424,-4.7461,-4.7451,-4.7458,-4.7541,-4.7567,-4.762,-4.7644,-4.7634,-4.7743,-4.7725,-4.7694,-4.7637,-4.7742,-4.7784,-4.7801,-4.7576,-4.7574,-4.7573,-4.7572,0,0,-4.7315,-4.7361,-4.738,-4.7402,-4.7441,-4.7486,-4.7554,-4.7605,-4.7637,-4.7674,-4.7729,-4.7807,-4.7779,-4.7808,-4.7802,-4.785,-4.7954,-4.7813,-4.7814,-4.7836,-4.8075,-4.8095,-4.8115,-4.7939,-4.7943,-4.7945,-4.8071,0,-4.7437,-4.7552,-4.7548,-4.7656,-4.771,-4.7683,-4.7741,-4.7772,-4.7782,-4.7829,-4.784,-4.7894,-4.7854,-4.7871,-4.7919,-4.7931,-4.8001,-4.7923,-4.799,-4.7993,-4.7978,-4.8137,-4.8159,-4.8276,-4.8087,-4.809,-4.8092,0,-4.7592,-4.7634,-4.7747,-4.7779,-4.7802,-4.7854,-4.7902,-4.7948,-4.7983,-4.7987,-4.8021,-4.8007,-4.8076,-4.8021,-4.8116,-4.8063,-4.8091,-4.8102,-4.8106,-4.811,-4.8046,-4.8142,-4.8313,-4.833,-4.8118,-4.8116,-4.8114,0,-4.7692,-4.7778,-4.7856,-4.7877,-4.7917,-4.7954,-4.7973,-4.8005,-4.8036,-4.8079,-4.81,-4.8151,-4.8178,-4.8218,-4.8219,-4.8179,-4.8315,-4.826,-4.8319,-4.8319,-4.8346,-4.8343,-4.8521,-4.837,-4.8369,-4.8369,-4.8369,0,-4.7825,-4.7895,-4.7902,-4.795,-4.8028,-4.8025,-4.8102,-4.8117,-4.8147,-4.8198,-4.8179,-4.8228,-4.8228,-4.8278,-4.828,-4.8358,-4.8371,-4.8376,-4.8375,-4.8376,-4.8375,-4.8391,-4.8382,-4.8374,-4.8373,-4.8372,-4.8371,0,-4.7948,-4.7956,-4.804,-4.8072,-4.8082,-4.8138,-4.8165,-4.8211,-4.8221,-4.8286,-4.8301,-4.8316,-4.8374,-4.8381,-4.8449,-4.845,-4.8543,-4.8535,-4.8531,-4.8528,-4.8587,-4.858,-4.8779,-4.8804,-4.8639,-4.864,-4.8642,0,-4.8031,-4.8084,-4.8122,-4.8155,-4.8176,-4.823,-4.8262,-4.8262,-4.8297,-4.8343,-4.8384,-4.844,-4.8485,-4.858,-4.8597,-4.8649,-4.864,-4.8707,-4.8648,-4.8647,-4.8638,-4.8634,-4.8639,-4.8716,-4.8718,-4.872,-4.8721,0,-4.8176,-4.8178,-4.8225,-4.8276,-4.8315,-4.8355,-4.8391,-4.842,-4.8425,-4.8465,-4.8524,-4.8559,-4.8629,-4.8685,-4.8738,-4.8758,-4.874,-4.874,-4.8756,-4.8756,-4.875,-4.8752,-4.8559,-4.8734,-4.8733,-4.8732,-4.8731,-4.8731,-4.828,-4.8326,-4.836,-4.8414,-4.8443,-4.8478,-4.8523,-4.8539,-4.8588,-4.8644,-4.8643,-4.8708,-4.8744,-4.8812,-4.8836,-4.8888,-4.8866,-4.889,-4.8895,-4.89,-4.8905,-4.8745,-4.8898,-4.8898,-4.8897,-4.8897,-4.8897,0,-4.8422,-4.8443,-4.8494,-4.8546,-4.8589,-4.8571,-4.8612,-4.8649,-4.8706,-4.8741,-4.8786,-4.8855,-4.8911,-4.8934,-4.8988,-4.9025,-4.9018,-4.9039,-4.9034,-4.9039,-4.8923,-4.8902,-4.9043,-4.9043,-4.9043,-4.9043,-4.9043,-4.9043,-4.85,-4.8577,-4.8584,-4.8675,-4.8697,-4.876,-4.8785,-4.8818,-4.8846,-4.8923,-4.8969,-4.8984,-4.9015,-4.9072,-4.9122,-4.9128,-4.9147,-4.9171,-4.9173,-4.9062,-4.9047,-4.9033,-4.9014,-4.9176,-4.9176,-4.9285,-4.9286,-4.9286]},{"header":{"parameterUnit":"m.s-1","parameterCategory":1,"la1":30.2991,"la2":30.254,"lo1":-89.0895,"lo2":-89.0444,"dx":0.0017,"dy":0.0017,"nx":28,"ny":28,"refTime":"2022-12-02T09:00:00:Z","depth":0,"parameterNumber":3,"parameterNumberName":"V-component_of_WINDS"},"data":[0,0,0,0,0,0,0,0,0,0,0,0,0,0,0,0,0,0,0,0,0,0,0,0,0,0,0,0,0,0,0,0,0,0,0,0,0,0,0,0,0,0,0,0,0,0,0,0,0,0,0,0,0,0,0,0,0,0,1.5269,1.527,0,1.5359,1.536,1.5361,1.5384,1.5384,1.5383,1.5383,1.5474,1.5477,1.5479,0,0,0,0,0,0,0,0,0,0,0,0,0,1.512,1.5122,1.5269,1.527,1.5272,1.5359,1.536,1.5361,1.5385,1.5384,1.5383,1.5383,1.5473,1.5476,1.548,0,0,0,0,0,0,0,0,0,0,0,0,0,1.5195,1.5123,1.5269,1.5294,1.5297,1.5359,1.536,1.5362,1.5385,1.5384,1.5383,1.5382,1.5472,1.5476,1.548,1.5524,0,0,1.5494,1.5495,0,0,0,0,0,0,0,0,1.519,1.52,1.5289,1.5292,1.5296,1.536,1.5341,1.5416,1.5385,1.5351,1.5383,1.5382,1.5436,1.5444,1.5462,1.5528,1.5532,1.5494,1.5497,1.5499,1.55,0,0,0,0,0,0,0,1.5185,1.5196,1.5305,1.529,1.5294,1.5301,1.531,1.5355,1.5397,1.5354,1.5356,1.5366,1.5438,1.5458,1.5464,1.5533,1.5494,1.5498,1.55,1.5502,1.5642,1.5643,0,0,0,0,0,0,1.5176,1.5192,1.5302,1.5307,1.524,1.5304,1.5315,1.534,1.5397,1.5405,1.5367,1.5367,1.5451,1.5459,1.5468,1.5524,1.5498,1.5503,1.5505,1.5641,1.5642,1.5644,0,0,0,0,0,0,1.5172,1.5185,1.5298,1.525,1.5265,1.5308,1.5335,1.5342,1.5362,1.5407,1.5414,1.5379,1.545,1.5462,1.551,1.5528,1.5505,1.5509,1.564,1.5642,1.5643,1.5637,0,0,0,0,0,0,1.5168,1.5184,1.52,1.525,1.5268,1.5339,1.5336,1.5345,1.537,1.5371,1.542,1.5428,1.5451,1.5504,1.5515,1.5533,1.5512,1.5638,1.5641,1.5642,1.5635,1.5638,1.564,0,0,0,0,0,1.5163,1.5194,1.5201,1.5214,1.5289,1.534,1.535,1.5376,1.5371,1.5388,1.5417,1.5426,1.5524,1.5508,1.5521,1.5541,1.5637,1.564,1.5642,1.5634,1.5637,1.564,0,0,0,0,0,0,1.5143,1.5201,1.5209,1.5258,1.5294,1.5344,1.5366,1.5377,1.5415,1.5415,1.5445,1.5456,1.5503,1.5527,1.5509,1.5588,1.5581,1.5586,1.5571,1.5574,1.5576,1.5569,1.5516,0,0,0,0,0,1.5145,1.5181,1.523,1.5268,1.5286,1.5323,1.5346,1.5363,1.5402,1.5417,1.5449,1.5486,1.5526,1.5551,1.559,1.5639,1.5651,1.566,1.5662,1.5663,1.5667,1.5698,1.5703,1.5652,1.5652,1.5652,0,0,1.5148,1.5184,1.5205,1.5265,1.5295,1.5333,1.5335,1.5374,1.5403,1.5423,1.5471,1.5497,1.554,1.559,1.5614,1.5612,1.5685,1.5666,1.5667,1.5671,1.5701,1.5706,1.571,1.5653,1.5653,1.5653,0,0,1.5174,1.5204,1.5241,1.5271,1.5317,1.5342,1.5351,1.54,1.5418,1.5468,1.5484,1.5519,1.5585,1.5617,1.5641,1.5682,1.5692,1.5694,1.5705,1.5735,1.5739,1.5743,1.5759,1.5764,1.5698,1.5698,1.5698,0,1.5172,1.523,1.5258,1.5297,1.5324,1.5345,1.5383,1.5411,1.5467,1.5486,1.5482,1.5569,1.5599,1.5658,1.5668,1.5687,1.5699,1.5688,1.5736,1.574,1.5744,1.576,1.5766,1.5698,1.5698,1.5698,1.5698,0,1.5226,1.5266,1.529,1.5345,1.5375,1.5413,1.5448,1.5475,1.549,1.5516,1.5567,1.5605,1.5653,1.5668,1.5683,1.573,1.5728,1.573,1.5723,1.5748,1.5764,1.577,1.5698,1.5698,1.5698,1.5698,0,0,1.524,1.5313,1.5321,1.5348,1.5402,1.5433,1.5474,1.5522,1.5545,1.5583,1.5619,1.5676,1.568,1.5708,1.5726,1.5752,1.5785,1.5752,1.5753,1.5758,1.5842,1.5841,1.5847,1.5792,1.5793,1.5794,1.5839,0,1.5274,1.5347,1.5375,1.5435,1.5473,1.5495,1.5531,1.5568,1.5594,1.5631,1.5659,1.57,1.57,1.5718,1.5744,1.5775,1.5802,1.5772,1.5826,1.5828,1.5816,1.5855,1.5853,1.5893,1.5845,1.5846,1.5847,0,1.5322,1.5363,1.5427,1.5479,1.5496,1.5527,1.5575,1.561,1.5653,1.567,1.5703,1.5721,1.5766,1.5757,1.5819,1.5798,1.5822,1.5841,1.5844,1.585,1.5839,1.5864,1.5906,1.5912,1.5856,1.5855,1.5855,0,1.5328,1.5399,1.5447,1.5469,1.553,1.5552,1.5579,1.5622,1.565,1.5692,1.571,1.5756,1.5782,1.5817,1.5848,1.5838,1.5908,1.5901,1.5925,1.5924,1.5939,1.5937,1.5987,1.5952,1.5952,1.5952,1.5952,0,1.5362,1.5401,1.5451,1.5481,1.5526,1.5558,1.5602,1.563,1.5669,1.5705,1.5726,1.576,1.5798,1.5837,1.5861,1.5911,1.5921,1.5937,1.5943,1.5936,1.5934,1.5952,1.5951,1.5954,1.5953,1.5953,1.5953,0,1.5376,1.5411,1.5466,1.552,1.5535,1.5566,1.5613,1.5643,1.5671,1.5717,1.573,1.5773,1.5821,1.5855,1.5915,1.5932,1.5985,1.5991,1.5971,1.5974,1.5996,1.5994,1.606,1.6071,1.6028,1.6028,1.6029,0,1.5396,1.5427,1.5486,1.5512,1.5539,1.5581,1.5611,1.5645,1.5674,1.5728,1.5753,1.5802,1.5843,1.5918,1.5955,1.6002,1.601,1.603,1.6017,1.6009,1.6012,1.601,1.6014,1.6031,1.6032,1.6032,1.6032,0,1.5429,1.5445,1.5487,1.5536,1.5571,1.561,1.565,1.5671,1.5712,1.5745,1.5794,1.5826,1.589,1.5939,1.599,1.6018,1.6033,1.6036,1.6044,1.6037,1.6025,1.6034,1.5977,1.6034,1.6034,1.6034,1.6034,1.6034,1.5447,1.5477,1.5524,1.557,1.5605,1.5642,1.5675,1.5708,1.5749,1.5804,1.5822,1.5874,1.5919,1.599,1.6019,1.6061,1.606,1.6071,1.6074,1.6077,1.6078,1.6018,1.607,1.607,1.607,1.607,1.607,0,1.5482,1.5514,1.5557,1.5614,1.5651,1.5662,1.5708,1.5739,1.5784,1.5826,1.5867,1.5925,1.5973,1.6015,1.6066,1.6091,1.61,1.6104,1.6102,1.6109,1.6074,1.6063,1.6096,1.6096,1.6096,1.6096,1.6096,1.6096,1.5505,1.5556,1.5579,1.5648,1.568,1.5732,1.5758,1.5793,1.5827,1.5891,1.5932,1.596,1.6002,1.6057,1.6102,1.6114,1.6132,1.6135,1.6148,1.6114,1.6111,1.6108,1.6098,1.6138,1.6138,1.618,1.618,1.618]}]]